DW4207 Weather Reports


time (UTC)temp
C
wind
direction
speed
KPH
gust
KPH
rain 1hr
cm
rain 24hr
cm
rain mn
cm
humidity
%
barometer
mb
20260906052024 23 40 3.2 11.3 0.00 0.00 0.00 84 1014.9
20260906051003 23 28 4.8 11.3 0.00 0.00 0.00 84 1014.9
20260906050003 23 25 4.8 9.7 0.00 0.00 0.00 84 1015.0
20260906045003 23 30 4.8 14.5 0.00 0.00 0.00 84 1014.9
20260906044003 23 49 1.6 9.7 0.00 0.00 0.00 84 1014.9
20260906043003 23 23 4.8 12.9 0.00 0.00 0.00 84 1014.8
20260906042003 23 20 3.2 12.9 0.00 0.00 0.00 84 1014.8
20260906041024 23 31 4.8 11.3 0.00 0.00 0.00 83 1014.8
20260906040025 23 29 3.2 12.9 0.00 0.00 0.00 84 1014.7
20260906035024 23 49 3.2 12.9 0.00 0.00 0.00 84 1014.7
20260906034003 23 29 1.6 14.5 0.00 0.00 0.00 84 1014.7
20260906033024 24 35 3.2 12.9 0.00 0.00 0.00 84 1014.6
20260906032003 24 46 3.2 9.7 0.00 0.00 0.00 83 1014.5
20260906031003 24 70 3.2 14.5 0.00 0.00 0.00 83 1014.6
20260906030003 24 84 3.2 12.9 0.00 0.00 0.00 83 1014.4
20260906025003 24 41 4.8 19.3 0.00 0.00 0.00 83 1014.2
20260906024024 25 35 4.8 17.7 0.00 0.00 0.00 82 1014.2
20260906023003 25 60 4.8 20.9 0.00 0.00 0.00 82 1014.1
20260906022024 25 51 1.6 12.9 0.00 0.00 0.00 82 1013.9
20260906021003 25 25 4.8 16.1 0.00 0.00 0.00 82 1013.8
20260906020003 25 22 1.6 4.8 0.00 0.00 0.00 82 1013.7
20260906015004 25 356 3.2 11.3 0.00 0.00 0.00 82 1013.6
20260906014024 25 351 1.6 3.2 0.00 0.00 0.00 82 1013.5
20260906013003 25 335 0.0 3.2 0.00 0.00 0.00 81 1013.1
20260906012003 25 329 0.0 3.2 0.00 0.00 0.00 80 1013.0
20260906011003 25 0 0.0 0.0 0.00 0.00 0.00 80 1012.9
20260906010003 25 360 0.0 3.2 0.00 0.00 0.00 80 1012.8
20260906005003 25 354 0.0 3.2 0.00 0.00 0.00 79 1012.8
20260906004003 25 343 0.0 3.2 0.00 0.00 0.00 79 1012.6
20260906003003 25 0 0.0 0.0 0.00 0.00 0.00 79 1012.3
20260906002003 26 321 0.0 3.2 0.00 0.00 0.00 78 1012.3
20260906001024 26 337 1.6 3.2 0.00 0.00 0.00 77 1012.4
20260906000003 26 349 1.6 4.8 0.00 0.00 0.00 76 1012.4
20260905235024 27 339 1.6 4.8 0.00 0.00 0.00 76 1012.6
20260905234003 27 351 1.6 4.8 0.00 0.00 0.00 75 1012.6
20260905233003 27 351 1.6 3.2 0.00 0.00 0.00 73 1012.6
20260905232003 27 5 3.2 11.3 0.00 0.00 0.00 72 1012.6
20260905231003 28 2 3.2 8.0 0.00 0.00 0.00 71 1012.6
20260905230003 28 313 1.6 3.2 0.00 0.00 0.00 70 1012.2
20260905225024 28 282 1.6 4.8 0.00 0.00 0.00 70 1011.9
20260905224003 28 239 1.6 4.8 0.00 0.00 0.00 70 1011.6
20260905223003 28 233 1.6 4.8 0.00 0.00 0.00 69 1012.0
20260905222024 27 271 0.0 3.2 0.00 0.00 0.00 69 1012.2
20260905221003 27 248 0.0 3.2 0.00 0.00 0.00 68 1012.2
20260905220003 28 294 1.6 6.4 0.00 0.00 0.00 67 1011.8
20260905215003 28 242 3.2 6.4 0.00 0.00 0.00 70 1011.7
20260905214003 28 251 3.2 8.0 0.00 0.00 0.00 69 1012.1
20260905213003 29 288 3.2 11.3 0.00 0.00 0.00 70 1012.3
20260905212003 29 354 1.6 4.8 0.00 0.00 0.00 72 1011.8
20260905211003 29 352 1.6 4.8 0.00 0.00 0.00 72 1012.2
20260905210003 30 342 1.6 6.4 0.00 0.00 0.00 71 1011.9
20260905205003 30 346 3.2 6.4 0.00 0.00 0.00 69 1012.1
20260905204003 31 342 3.2 6.4 0.00 0.00 0.00 67 1012.3
20260905203003 31 289 1.6 4.8 0.00 0.00 0.00 65 1012.4
20260905202003 31 236 3.2 8.0 0.00 0.00 0.00 64 1012.2
20260905201003 32 276 3.2 9.7 0.00 0.00 0.00 63 1012.5
20260905200003 31 281 3.2 6.4 0.00 0.00 0.00 64 1012.5
20260905195024 31 304 3.2 11.3 0.00 0.00 0.00 62 1012.4
20260905194003 33 332 6.4 14.5 0.00 0.00 0.00 59 1012.5
20260905193024 33 241 3.2 12.9 0.00 0.00 0.00 58 1012.6
20260905192003 32 233 4.8 12.9 0.00 0.00 0.00 61 1012.8
20260905191004 31 225 4.8 12.9 0.00 0.00 0.00 61 1012.9
20260905190024 32 251 3.2 11.3 0.00 0.00 0.00 58 1012.9
20260905185003 32 239 4.8 11.3 0.00 0.00 0.00 59 1013.0
20260905184003 32 251 4.8 9.7 0.00 0.00 0.00 59 1013.2
20260905183003 32 223 4.8 11.3 0.00 0.00 0.00 61 1013.4
20260905182003 31 228 6.4 11.3 0.00 0.00 0.00 61 1013.6
20260905181003 31 228 4.8 14.5 0.00 0.00 0.00 60 1013.7
20260905180003 31 230 6.4 14.5 0.00 0.00 0.00 62 1013.7
20260905175003 31 228 4.8 8.0 0.00 0.00 0.00 61 1013.8
20260905174003 31 203 3.2 9.7 0.00 0.00 0.00 61 1013.9
20260905173003 31 226 6.4 16.1 0.00 0.00 0.00 60 1014.0
20260905172003 31 168 6.4 14.5 0.00 0.00 0.00 61 1014.0
20260905171003 30 150 8.0 19.3 0.00 0.00 0.00 60 1014.2
20260905170003 30 162 4.8 12.9 0.00 0.00 0.00 61 1014.4
20260905165003 30 153 6.4 12.9 0.00 0.00 0.00 62 1014.6
20260905164003 28 165 4.8 12.9 0.00 0.00 0.00 63 1014.7
20260905163024 28 142 6.4 12.9 0.00 0.00 0.00 63 1014.8
20260905162003 28 134 6.4 11.3 0.00 0.00 0.00 65 1014.9
20260905161003 28 170 6.4 16.1 0.00 0.00 0.00 64 1014.7
20260905160003 28 154 8.0 17.7 0.00 0.00 0.00 65 1014.6
20260905155003 28 154 11.3 22.5 0.00 0.00 0.00 65 1014.6
20260905154024 27 152 9.7 16.1 0.00 0.00 0.00 66 1014.6
20260905153003 27 145 8.0 17.7 0.00 0.00 0.00 64 1014.7
20260905152003 27 149 9.7 19.3 0.00 0.00 0.00 67 1014.6
20260905151003 27 165 9.7 20.9 0.00 0.00 0.00 66 1014.8
20260905150003 26 154 8.0 17.7 0.00 0.00 0.00 68 1014.9
20260905145003 26 157 9.7 20.9 0.00 0.00 0.00 68 1014.9
20260905144024 26 157 9.7 17.7 0.00 0.00 0.00 70 1014.8
20260905143003 25 148 12.9 24.1 0.00 0.00 0.00 71 1014.8
20260905142003 25 135 11.3 22.5 0.00 0.00 0.00 72 1014.9
20260905141003 25 137 9.7 19.3 0.00 0.00 0.00 74 1015.0
20260905140004 24 131 11.3 20.9 0.00 0.00 0.00 74 1015.0
20260905135003 24 131 11.3 19.3 0.00 0.00 0.00 75 1015.0
20260905134003 23 133 9.7 17.7 0.00 0.00 0.00 75 1015.1
20260905133003 23 135 9.7 19.3 0.00 0.00 0.00 76 1015.2
20260905132024 23 135 8.0 19.3 0.00 0.00 0.00 76 1015.2
20260905131003 23 126 9.7 20.9 0.00 0.00 0.00 77 1015.4
20260905130003 23 124 9.7 17.7 0.00 0.00 0.00 77 1015.2
20260905125003 23 141 8.0 16.1 0.00 0.00 0.00 78 1015.3
20260905124003 23 125 6.4 14.5 0.00 0.00 0.00 78 1015.0
20260905123003 22 131 8.0 12.9 0.00 0.00 0.00 79 1015.2
20260905122003 22 127 6.4 14.5 0.00 0.00 0.00 79 1015.2
20260905121003 22 112 6.4 14.5 0.00 0.00 0.00 79 1015.1
20260905120003 22 110 4.8 12.9 0.00 0.00 0.00 80 1015.1
20260905115024 22 100 3.2 8.0 0.00 0.00 0.00 81 1015.0
20260905114003 22 93 4.8 12.9 0.00 0.00 0.00 80 1014.9
20260905113024 22 92 4.8 14.5 0.00 0.00 0.00 80 1014.9
20260905112003 22 92 6.4 16.1 0.00 0.00 0.00 80 1014.8
20260905111003 22 88 4.8 16.1 0.00 0.00 0.00 82 1014.8
20260905110024 23 89 8.0 17.7 0.00 0.00 0.00 85 1014.6
20260905105003 23 83 3.2 12.9 0.00 0.00 0.00 90 1014.3
20260905104004 23 0 0.0 0.0 0.00 0.00 0.00 91 1013.7
20260905103004 22 0 0.0 0.0 0.00 0.00 0.00 90 1013.8
20260905102004 23 0 0.0 0.0 0.00 0.00 0.00 90 1013.8
20260905101025 23 0 0.0 0.0 0.00 0.00 0.00 90 1013.6
20260905100004 23 0 0.0 0.0 0.00 0.00 0.00 90 1013.6
20260905095004 23 0 0.0 0.0 0.00 0.00 0.00 90 1013.6
20260905094004 23 0 0.0 0.0 0.00 0.00 0.00 89 1013.6
20260905093004 23 0 0.0 0.0 0.00 0.00 0.00 89 1013.6
20260905092004 23 0 0.0 0.0 0.00 0.00 0.00 89 1013.5
20260905091004 23 0 0.0 0.0 0.00 0.00 0.00 89 1013.6
20260905090004 23 0 0.0 0.0 0.00 0.00 0.00 89 1013.5
20260905085004 23 0 0.0 0.0 0.00 0.00 0.00 89 1013.4
20260905084004 23 0 0.0 0.0 0.00 0.00 0.00 88 1013.6
20260905083025 23 0 0.0 0.0 0.00 0.00 0.00 89 1013.5
20260905082005 23 0 0.0 0.0 0.00 0.00 0.00 88 1013.4
20260905081004 24 0 0.0 0.0 0.00 0.00 0.00 88 1013.4
20260905080004 24 0 0.0 0.0 0.00 0.00 0.00 87 1013.2
20260905075004 24 0 0.0 0.0 0.00 0.00 0.00 87 1012.9
20260905074004 24 0 0.0 0.0 0.00 0.00 0.00 88 1012.9
20260905073004 24 0 0.0 0.0 0.00 0.00 0.00 89 1012.9
20260905072025 24 0 0.0 0.0 0.00 0.00 0.00 89 1012.9
20260905071004 24 0 0.0 0.0 0.00 0.00 0.00 89 1012.9
20260905070004 24 0 0.0 0.0 0.00 0.00 0.00 90 1013.0
20260905065004 24 0 0.0 0.0 0.00 0.00 0.00 90 1013.0
20260905064004 23 0 0.0 0.0 0.00 0.00 0.00 89 1013.1
20260905063004 24 0 0.0 0.0 0.00 0.00 0.00 89 1013.4
20260905062025 24 0 0.0 0.0 0.00 0.00 0.00 90 1013.6
20260905061004 23 0 0.0 0.0 0.00 0.00 0.00 90 1013.7
20260905060004 23 0 0.0 0.0 0.00 0.00 0.00 90 1013.8
20260905055004 24 0 0.0 0.0 0.00 0.00 0.00 90 1013.8
20260905054025 24 0 0.0 0.0 0.00 0.00 0.00 90 1013.9
20260905053004 24 0 0.0 0.0 0.00 0.00 0.00 90 1013.9